User: anonymous
Location: Columbia
(38.9520°N, 92.3340°W)
Time: 09:02:40
(UTC-05:00)
Language:

Iridium 22 - Orbit

View from above orbital plane
View from above orbital plane
View from above satellite
View from above satellite

Ground track
Ground track

The orbit data is extracted from the following two-line orbital elements,

1 24907U 97043E   14244.32876733  .00000247  00000-0  81135-4 0  9477
2 24907 086.3998 322.3027 0002362 111.0457 317.2356 14.34217791891653
Epoch (UTC): 01 September 2014 07:53:25
Eccentricity: 0.0002362
inclination: 86.3998°
perigee height: 776 km
apogee height: 779 km
right ascension of ascending node: 322.3027°
argument of perigee: 111.0457°
revolutions per day: 14.34217791
mean anomaly at epoch: 317.2356°
orbit number at epoch: 89165

The dashed part of the orbit path shows where the satellite is in the earth's shadow,  

DLR